�N����,����,�g�[���i���ԁj���x,�g�[�����x,��g�[���i���ցj���x,����
 2004/06/01, 0:00,23.7,66,23.4,23.2
 2004/06/01, 0:15,23.6,66,23.4,23.2
 2004/06/01, 0:30,23.5,67,23.3,23.2
 2004/06/01, 0:45,23.4,67,23.2,23.2
 2004/06/01, 1:00,23.4,68,23.2,23.2
 2004/06/01, 1:15,23.4,68,23.2,23.3
 2004/06/01, 1:30,23.3,68,23.1,23.3
 2004/06/01, 1:45,23.2,68,23.1,23.3
 2004/06/01, 2:00,23.2,68,23,23.3
 2004/06/01, 2:15,23.2,68,22.9,23.3
 2004/06/01, 2:30,23.1,67,22.9,23.3
 2004/06/01, 2:45,23,67,22.8,23.3
 2004/06/01, 3:00,23,67,22.8,23.3
 2004/06/01, 3:15,23,67,22.8,23.3
 2004/06/01, 3:30,22.9,68,22.7,23.3
 2004/06/01, 3:45,22.9,68,22.6,23.2
 2004/06/01, 4:00,22.8,68,22.6,23.2
 2004/06/01, 4:15,22.7,68,22.5,23.2
 2004/06/01, 4:30,22.6,68,22.4,23.2
 2004/06/01, 4:45,22.5,68,22.3,23.2
 2004/06/01, 5:00,22.5,69,22.2,23.2
 2004/06/01, 5:15,22.3,69,22.2,23.2
 2004/06/01, 5:30,22.3,69,22.1,23.1
 2004/06/01, 5:45,22.2,69,22.1,23.1
 2004/06/01, 6:00,22.1,69,22.1,23.1
 2004/06/01, 6:15,22.1,69,22.1,23.1
 2004/06/01, 6:30,22,69,22.2,23
 2004/06/01, 6:45,22,69,22.3,23
 2004/06/01, 7:00,22,69,22.3,23
 2004/06/01, 7:15,22,69,22.4,23
 2004/06/01, 7:30,22,69,22.4,23
 2004/06/01, 7:45,22,69,22.4,23
 2004/06/01, 8:00,22,69,22.4,22.9
 2004/06/01, 8:15,22,69,22.6,22.9
 2004/06/01, 8:30,22.1,69,22.7,22.9
 2004/06/01, 8:45,22.1,68,22.7,22.9
 2004/06/01, 9:00,22.2,64,22.7,21.1
 2004/06/01, 9:15,21.9,68,22.6,21.1
 2004/06/01, 9:30,21.9,63,22.7,21.5
 2004/06/01, 9:45,22.3,64,23.1,21.5
 2004/06/01,10:00,22.7,65,23.5,21.6
 2004/06/01,10:15,22.9,63,23.6,21.6
 2004/06/01,10:30,23.1,66,23.6,21.6
 2004/06/01,10:45,23.2,62,23.7,21.7
 2004/06/01,11:00,23.5,57,23.9,21.7
 2004/06/01,11:15,23.7,56,24.1,21.7
 2004/06/01,11:30,24,54,24.7,22.1
 2004/06/01,11:45,24.1,54,24.9,22.1
 2004/06/01,12:00,24.2,50,24.9,22.2
 2004/06/01,12:15,24.5,52,25.3,22.2
 2004/06/01,12:30,24.8,50,25.3,22.1
 2004/06/01,12:45,24.8,51,25.6,22.2
 2004/06/01,13:00,24.9,51,25.8,22.2
 2004/06/01,13:15,25.1,46,26.3,22.2
 2004/06/01,13:30,25.2,45,26.9,22.3
 2004/06/01,13:45,25.3,47,27.4,22.3
 2004/06/01,14:00,25.4,45,28.6,22.4
 2004/06/01,14:15,25.8,47,29.7,22.5
 2004/06/01,14:30,25.6,43,29.5,22.5
 2004/06/01,14:45,25.8,44,31,22.6
 2004/06/01,15:00,26,46,33.2,22.7
 2004/06/01,15:15,26.1,41,34.5,22.8
 2004/06/01,15:30,26.3,42,35,22.8
 2004/06/01,15:45,26.3,43,36.1,22.9
 2004/06/01,16:00,26.5,40,36.4,23
 2004/06/01,16:15,26.5,40,35,23.1
 2004/06/01,16:30,26.5,42,37,23.1
 2004/06/01,16:45,26.5,41,36.8,23.2
 2004/06/01,17:00,26.5,39,36.4,23.3
 2004/06/01,17:15,26.4,39,36,23.4
 2004/06/01,17:30,26.2,39,32.3,23.5
 2004/06/01,17:45,25.8,39,30,23.6
 2004/06/01,18:00,25.5,40,28.8,23.7
 2004/06/01,18:15,25.2,40,28,23.8
 2004/06/01,18:30,24.8,41,27.4,23.9
 2004/06/01,18:45,24.5,43,26.9,24
 2004/06/01,19:00,24.2,42,26.4,24.1
 2004/06/01,19:15,23.5,42,25.9,24.1
 2004/06/01,19:30,24,46,25.7,24.2
 2004/06/01,19:45,24.1,46,25.4,24.3
 2004/06/01,20:00,24.1,46,25.1,24.3
 2004/06/01,20:15,24,46,24.8,24.4
 2004/06/01,20:30,23.8,46,24.6,24.5
 2004/06/01,20:45,23.7,46,24.3,24.5
 2004/06/01,21:00,23.5,45,24.1,24.6
 2004/06/01,21:15,23.3,46,23.8,24.6
 2004/06/01,21:30,23.2,46,23.6,24.6
 2004/06/01,21:45,23,46,23.4,24.7
 2004/06/01,22:00,22.9,46,23.3,24.7
 2004/06/01,22:15,22.8,46,23,24.7
 2004/06/01,22:30,22.6,46,23,24.7
 2004/06/01,22:45,22.5,47,22.8,24.7
 2004/06/01,23:00,22.3,47,22.6,24.7
 2004/06/01,23:15,22.1,48,22.4,24.7
 2004/06/01,23:30,21.9,49,22.3,24.7
 2004/06/01,23:45,21.7,50,22.2,24.7
 2004/06/02, 0:00,21.7,50,22,24.7
 2004/06/02, 0:15,21.7,52,22,24.7
 2004/06/02, 0:30,21.7,53,21.9,24.6
 2004/06/02, 0:45,21.6,53,21.8,24.6
 2004/06/02, 1:00,21.5,52,21.6,24.5
 2004/06/02, 1:15,21.3,53,21.5,24.5
 2004/06/02, 1:30,21.2,53,21.5,24.4
 2004/06/02, 1:45,21.2,53,21.3,21.9
 2004/06/02, 2:00,21.1,53,21.2,21.8
 2004/06/02, 2:15,21.1,54,21.2,21.9
 2004/06/02, 2:30,21.2,55,21.2,21.9
 2004/06/02, 2:45,21.2,56,21.2,21.9
 2004/06/02, 3:00,21.2,56,21.1,21.9
 2004/06/02, 3:15,21.2,56,21,21.7
 2004/06/02, 3:30,21.1,56,21,21.7
 2004/06/02, 3:45,21,56,20.9,21.7
 2004/06/02, 4:00,20.9,56,20.8,21.6
 2004/06/02, 4:15,20.8,56,20.7,21.6
 2004/06/02, 4:30,20.7,57,20.6,21.6
 2004/06/02, 4:45,20.6,57,20.5,21.6
 2004/06/02, 5:00,20.5,57,20.5,21.6
 2004/06/02, 5:15,20.5,57,20.4,21.5
 2004/06/02, 5:30,20.3,58,20.4,21.5
 2004/06/02, 5:45,20.3,58,20.4,21.5
 2004/06/02, 6:00,20.2,58,20.5,21.4
 2004/06/02, 6:15,20.2,58,20.5,21.4
 2004/06/02, 6:30,20.3,58,20.6,21.4
 2004/06/02, 6:45,20.2,59,20.7,21.4
 2004/06/02, 7:00,20.2,59,20.7,21.3
 2004/06/02, 7:15,20.2,59,20.8,21.3
 2004/06/02, 7:30,20.2,59,21,21.3
 2004/06/02, 7:45,20.3,59,21.1,21.3
 2004/06/02, 8:00,20.3,59,21.2,21.2
 2004/06/02, 8:15,20.3,59,21.4,21.2
 2004/06/02, 8:30,20.4,60,21.4,21.2
 2004/06/02, 8:45,20.5,60,21.4,21.2
 2004/06/02, 9:00,20.6,60,21.6,21.2
 2004/06/02, 9:15,20.7,60,21.6,21.2
 2004/06/02, 9:30,21.1,56,21.9,21.8
 2004/06/02, 9:45,21.5,54,22.2,21.8
 2004/06/02,10:00,22,51,22.6,21.8
 2004/06/02,10:15,22.5,48,23,21.8
 2004/06/02,10:30,22.7,46,23.3,21.8
 2004/06/02,10:45,23,48,23.6,20.8
 2004/06/02,11:00,23.4,47,24,20.8
 2004/06/02,11:15,23.8,47,24.2,20.9
 2004/06/02,11:30,23.5,51,24.4,20.9
 2004/06/02,11:45,23.6,52,24.6,20.9
 2004/06/02,12:00,23.9,51,25,21
 2004/06/02,12:15,24.3,46,25.3,21.1
 2004/06/02,12:30,24.5,47,25.6,21.1
 2004/06/02,12:45,24.7,48,25.7,21.2
 2004/06/02,13:00,25,46,26.2,21.2
 2004/06/02,13:15,25.1,48,26.6,21.2
 2004/06/02,13:30,25.4,47,27.3,21.3
 2004/06/02,13:45,25.5,48,27.5,21.3
 2004/06/02,14:00,25.6,48,27.4,21.4
 2004/06/02,14:15,25.5,49,27.4,21.5
 2004/06/02,14:30,25.8,50,28.2,21.6
 2004/06/02,14:45,26,50,28.9,21.7
 2004/06/02,15:00,26.6,46,28.8,21.8
 2004/06/02,15:15,26.6,45,29.3,21.8
 2004/06/02,15:30,26.6,46,28.7,21.9
 2004/06/02,15:45,26.5,46,28.9,22
 2004/06/02,16:00,26.5,47,28.9,22.1
 2004/06/02,16:15,26.3,49,28.2,22.2
 2004/06/02,16:30,26.2,46,27.9,22.4
 2004/06/02,16:45,26.1,45,27.4,21.9
 2004/06/02,17:00,26,49,27.1,21.9
 2004/06/02,17:15,25.9,51,26.9,22
 2004/06/02,17:30,25.8,52,26.7,22.1
 2004/06/02,17:45,25.8,53,26.6,22.2
 2004/06/02,18:00,25.6,53,26.4,22.3
 2004/06/02,18:15,25.6,53,26.2,22.4
 2004/06/02,18:30,25.4,54,26,22.5
 2004/06/02,18:45,25.3,53,25.8,22.6
 2004/06/02,19:00,25.2,54,25.6,22.7
 2004/06/02,19:15,25.2,53,25.5,22.8
 2004/06/02,19:30,25.1,53,25.4,22.9
 2004/06/02,19:45,25.1,53,25.3,23
 2004/06/02,20:00,25.1,52,25.2,23
 2004/06/02,20:15,24.9,52,25,23.1
 2004/06/02,20:30,24.9,51,24.9,23.2
 2004/06/02,20:45,24.8,50,24.8,23.2
 2004/06/02,21:00,24.8,49,24.7,23.3
 2004/06/02,21:15,24.7,49,24.5,21.7
 2004/06/02,21:30,24.6,51,24.4,21.8
 2004/06/02,21:45,24.6,53,24.4,21.9
 2004/06/02,22:00,24.5,52,24.3,21.9
 2004/06/02,22:15,24.4,49,24.2,22
 2004/06/02,22:30,24.3,50,24.1,22.1
 2004/06/02,22:45,24.2,51,24,22.1
 2004/06/02,23:00,24.1,50,23.9,22.2
 2004/06/02,23:15,24,49,23.8,22.3
 2004/06/02,23:30,23.9,49,23.7,22.3
 2004/06/02,23:45,23.7,47,23.6,22.4
 2004/06/03, 0:00,23.6,47,23.4,22.4
 2004/06/03, 0:15,23.5,48,23.4,22.5
 2004/06/03, 0:30,23.4,49,23.4,22.5
 2004/06/03, 0:45,23.4,49,23.3,22.6
 2004/06/03, 1:00,23.3,49,23.2,22.6
 2004/06/03, 1:15,23.2,49,23.1,21.9
 2004/06/03, 1:30,23.2,48,23,21.9
 2004/06/03, 1:45,23.1,48,23,21.9
 2004/06/03, 2:00,23.1,48,22.9,21.9
 2004/06/03, 2:15,23,48,22.8,22
 2004/06/03, 2:30,22.9,49,22.8,22
 2004/06/03, 2:45,22.9,49,22.7,22.4
 2004/06/03, 3:00,22.9,51,22.7,22.5
 2004/06/03, 3:15,22.8,52,22.6,22.5
 2004/06/03, 3:30,22.7,53,22.6,22.5
 2004/06/03, 3:45,22.6,53,22.5,22.5
 2004/06/03, 4:00,22.6,54,22.4,22.5
 2004/06/03, 4:15,22.5,54,22.4,22.5
 2004/06/03, 4:30,22.4,54,22.3,22.5
 2004/06/03, 4:45,22.3,55,22.2,22.5
 2004/06/03, 5:00,22.2,55,22.1,22.5
 2004/06/03, 5:15,22.2,55,22.1,22.5
 2004/06/03, 5:30,22.1,55,22,22.5
 2004/06/03, 5:45,22,56,22,22.5
 2004/06/03, 6:00,22,56,22,22.5
 2004/06/03, 6:15,21.9,56,22,22.5
 2004/06/03, 6:30,21.8,57,22,22.5
 2004/06/03, 6:45,21.8,57,22.1,22.5
 2004/06/03, 7:00,21.7,57,22.1,22.5
 2004/06/03, 7:15,21.8,58,22.2,22.5
 2004/06/03, 7:30,21.8,57,22.3,22.4
 2004/06/03, 7:45,21.7,57,22.3,22.4
 2004/06/03, 8:00,21.8,57,22.4,22.4
 2004/06/03, 8:15,21.9,57,22.6,22.4
 2004/06/03, 8:30,21.9,58,22.7,22.4
 2004/06/03, 8:45,22,61,22.8,22.4
 2004/06/03, 9:00,22.2,60,23,21.9
 2004/06/03, 9:15,22.3,61,23.2,21.9
 2004/06/03, 9:30,22.5,63,23.4,21.9
 2004/06/03, 9:45,22.7,61,23.7,21.9
 2004/06/03,10:00,22.8,60,23.9,22
 2004/06/03,10:15,23,59,24,22
 2004/06/03,10:30,23.1,58,23.9,22
 2004/06/03,10:45,23.3,57,24.1,22
 2004/06/03,11:00,23.4,56,24.3,22.1
 2004/06/03,11:15,23.7,53,24.6,22.1
 2004/06/03,11:30,23.9,45,24.4,22.1
 2004/06/03,11:45,24.3,41,24.4,22.2
 2004/06/03,12:00,24.7,39,24.6,22.2
 2004/06/03,12:15,24.9,37,25,22.2
 2004/06/03,12:30,25.3,38,25.2,21.6
 2004/06/03,12:45,25.4,39,25.5,21.6
 2004/06/03,13:00,25.6,37,25.7,21.7
 2004/06/03,13:15,25.7,41,26.3,21.7
 2004/06/03,13:30,25.7,38,26.8,21.8
 2004/06/03,13:45,25.8,37,27.1,21.8
 2004/06/03,14:00,26.1,37,28,21.9
 2004/06/03,14:15,26.1,37,28.4,21.9
 2004/06/03,14:30,26.2,38,29.7,22
 2004/06/03,14:45,26.3,37,30.4,22.1
 2004/06/03,15:00,26.4,36,32.4,22.1
 2004/06/03,15:15,26.6,34,34.2,22.2
 2004/06/03,15:30,26.7,34,36,22.3
 2004/06/03,15:45,26.9,31,37.1,22.4
 2004/06/03,16:00,26.9,34,38,22.5
 2004/06/03,16:15,26.9,33,37.9,22.5
 2004/06/03,16:30,26.9,34,37.6,22.6
 2004/06/03,16:45,26.8,33,36.9,22.7
 2004/06/03,17:00,26.7,33,36.2,22.8
 2004/06/03,17:15,26.7,34,35.4,22.9
 2004/06/03,17:30,26.7,39,32.8,23
 2004/06/03,17:45,26.7,41,30.8,23.1
 2004/06/03,18:00,26.6,42,29.8,23.2
 2004/06/03,18:15,26.1,36,28.8,23.3
 2004/06/03,18:30,25.8,37,28.1,23.1
 2004/06/03,18:45,25.5,39,27.6,23.1
 2004/06/03,19:00,25.1,41,27.1,23.2
 2004/06/03,19:15,24.7,43,26.6,23.3
 2004/06/03,19:30,24.8,45,26.4,23.4
 2004/06/03,19:45,25,46,26.4,23.4
 2004/06/03,20:00,25,46,26.2,23.5
 2004/06/03,20:15,24.9,45,25.9,23.6
 2004/06/03,20:30,24.9,44,25.7,23.7
 2004/06/03,20:45,24.8,44,25.5,23.7
 2004/06/03,21:00,24.6,43,25.2,23.8
 2004/06/03,21:15,24.6,43,25,23.9
 2004/06/03,21:30,24.4,43,24.9,23.9
 2004/06/03,21:45,24.3,43,24.7,24
 2004/06/03,22:00,24.1,43,24.5,24
 2004/06/03,22:15,24.1,44,24.4,24.1
 2004/06/03,22:30,24,45,24.3,24.1
 2004/06/03,22:45,24,45,24.2,24.1
 2004/06/03,23:00,24,45,24.1,24.2
 2004/06/03,23:15,23.9,45,23.9,24.2
 2004/06/03,23:30,23.8,45,23.8,24.2
 2004/06/03,23:45,23.8,46,23.7,24.3
 2004/06/04, 0:00,23.7,47,23.6,24.3
 2004/06/04, 0:15,23.6,47,23.5,24.3
 2004/06/04, 0:30,23.5,48,23.5,23
 2004/06/04, 0:45,23.5,50,23.4,23
 2004/06/04, 1:00,23.5,50,23.3,23
 2004/06/04, 1:15,23.4,50,23.2,23.1
 2004/06/04, 1:30,23.4,51,23.1,23.1
 2004/06/04, 1:45,23.4,51,23.2,22.1
 2004/06/04, 2:00,23.3,52,23,22.2
 2004/06/04, 2:15,23.2,52,23,22.3
 2004/06/04, 2:30,23,52,22.8,22.3
 2004/06/04, 2:45,22.9,51,22.7,22.3
 2004/06/04, 3:00,22.7,51,22.6,22.3
 2004/06/04, 3:15,22.7,51,22.5,22.3
 2004/06/04, 3:30,22.5,51,22.4,22.4
 2004/06/04, 3:45,22.4,51,22.3,22.4
 2004/06/04, 4:00,22.3,51,22.2,22.4
 2004/06/04, 4:15,22.2,52,22,22.4
 2004/06/04, 4:30,22,52,21.9,22.4
 2004/06/04, 4:45,21.9,52,21.8,22.4
 2004/06/04, 5:00,21.8,52,21.7,22.4
 2004/06/04, 5:15,21.7,52,21.6,22.4
 2004/06/04, 5:30,21.6,52,21.6,22.4
 2004/06/04, 5:45,21.5,52,21.5,22.4
 2004/06/04, 6:00,21.4,52,21.5,22.3
 2004/06/04, 6:15,21.3,53,21.5,22.3
 2004/06/04, 6:30,21.3,53,21.5,22.3
 2004/06/04, 6:45,21.3,53,21.5,22.3
 2004/06/04, 7:00,21.3,53,21.6,22.3
 2004/06/04, 7:15,21.3,54,21.6,20.6
 2004/06/04, 7:30,21.3,54,21.7,20.5
 2004/06/04, 7:45,21.3,53,21.8,20.6
 2004/06/04, 8:00,21.4,53,21.9,20.6
 2004/06/04, 8:15,21.5,53,22,20.6
 2004/06/04, 8:30,21.6,53,22.1,20.7
 2004/06/04, 8:45,21.9,52,22.3,20.7
 2004/06/04, 9:00,22.2,50,22.5,21.2
 2004/06/04, 9:15,22.4,50,22.7,21.3
 2004/06/04, 9:30,22.7,43,22.9,21.3
 2004/06/04, 9:45,23.1,39,23,21.3
 2004/06/04,10:00,23.2,46,23.2,21.4
 2004/06/04,10:15,23.4,46,23.4,21.4
 2004/06/04,10:30,23.5,46,23.6,21.4
 2004/06/04,10:45,23.6,47,23.9,21.5
 2004/06/04,11:00,23.7,47,24.1,21.5
 2004/06/04,11:15,24,39,24.4,21.5
 2004/06/04,11:30,24.8,33,24.6,21.6
 2004/06/04,11:45,25.1,33,24.8,21.6
 2004/06/04,12:00,25.4,34,25.1,21.7
 2004/06/04,12:15,25.3,35,25.4,21.8
 2004/06/04,12:30,25.7,32,25.6,21.8
 2004/06/04,12:45,25.9,30,25.9,21.9
 2004/06/04,13:00,25.9,34,26.3,21.9
 2004/06/04,13:15,25.8,37,27,22.1
 2004/06/04,13:30,25.8,39,27.8,22.1
 2004/06/04,13:45,25.8,40,28.6,22.2
 2004/06/04,14:00,25.8,41,29.4,22.3
 2004/06/04,14:15,25.9,42,30.2,22.3
 2004/06/04,14:30,26,43,31.3,22.4
 2004/06/04,14:45,26.1,44,32.6,22.5
 2004/06/04,15:00,26.3,45,34.2,22.5
 2004/06/04,15:15,26.4,46,36,22.6
 2004/06/04,15:30,26.6,48,37.5,22.8
 2004/06/04,15:45,26.8,49,38.9,22.9
 2004/06/04,16:00,26.9,49,39.5,23
 2004/06/04,16:15,27.1,49,39.4,23.1
 2004/06/04,16:30,27.2,49,39,23.2
 2004/06/04,16:45,27.3,49,38.5,23.3
 2004/06/04,17:00,27.4,49,38,23.4
 2004/06/04,17:15,27.5,49,37.6,23.6
 2004/06/04,17:30,27.5,44,34.7,23.7
 2004/06/04,17:45,27.5,44,32.4,23.8
 2004/06/04,18:00,27.4,42,31.1,23.9
 2004/06/04,18:15,27.3,41,30.3,24.1
 2004/06/04,18:30,26.7,25,29.1,24.2
 2004/06/04,18:45,26.4,24,28.4,24.3
 2004/06/04,19:00,26.3,25,27.9,24.4
 2004/06/04,19:15,26.1,26,27.5,24.5
 2004/06/04,19:30,26,26,27.1,24.6
 2004/06/04,19:45,25.8,27,26.9,24.7
 2004/06/04,20:00,25.9,35,26.8,24.8
 2004/06/04,20:15,25.8,38,26.7,24.9
 2004/06/04,20:30,25.4,41,26.5,25
 2004/06/04,20:45,25.2,43,26.4,25.1
 2004/06/04,21:00,25.2,44,26.2,25.2
 2004/06/04,21:15,25.3,45,26.1,25.3
 2004/06/04,21:30,25.3,45,26,25.3
 2004/06/04,21:45,25.2,44,25.8,25.4
 2004/06/04,22:00,25.2,42,25.6,25.5
 2004/06/04,22:15,25.1,43,25.4,25.6
 2004/06/04,22:30,25.1,44,25.2,25.6
 2004/06/04,22:45,25.1,44,25.2,25.7
 2004/06/04,23:00,25.1,45,25.1,25.7
 2004/06/04,23:15,25.2,45,25,25.7
 2004/06/04,23:30,25.1,44,24.8,25.8
 2004/06/04,23:45,25,44,24.8,25.8
 2004/06/05, 0:00,24.9,44,24.6,25.8
 2004/06/05, 0:15,24.8,43,24.5,25.8
 2004/06/05, 0:30,24.8,43,24.4,25.9
 2004/06/05, 0:45,24.7,43,24.2,25.9
 2004/06/05, 1:00,24.6,43,24.2,25.8
 2004/06/05, 1:15,24.6,44,24.1,25.8
 2004/06/05, 1:30,24.6,45,24,25.8
 2004/06/05, 1:45,24.5,45,23.9,25.8
 2004/06/05, 2:00,24.3,44,23.7,25.8
 2004/06/05, 2:15,24.2,45,23.6,25.8
 2004/06/05, 2:30,24.1,45,23.6,25.7
 2004/06/05, 2:45,24,45,23.5,25.7
 2004/06/05, 3:00,23.9,46,23.5,25.6
 2004/06/05, 3:15,23.8,47,23.4,25.6
 2004/06/05, 3:30,23.7,47,23.3,25.5
 2004/06/05, 3:45,23.5,47,23.1,25.5
 2004/06/05, 4:00,23.4,48,23,25.4
 2004/06/05, 4:15,23.3,48,22.9,25.4
 2004/06/05, 4:30,23.2,48,22.9,25.3
 2004/06/05, 4:45,23.1,49,22.8,25.3
 2004/06/05, 5:00,23,50,22.6,25.2
 2004/06/05, 5:15,23,50,22.6,25.1
 2004/06/05, 5:30,22.8,50,22.6,25.1
 2004/06/05, 5:45,22.6,51,22.5,25
 2004/06/05, 6:00,22.6,51,22.5,25
 2004/06/05, 6:15,22.5,52,22.5,24.9
 2004/06/05, 6:30,22.4,52,22.6,24.9
 2004/06/05, 6:45,22.4,53,22.6,21.8
 2004/06/05, 7:00,22.4,53,22.6,21.8
 2004/06/05, 7:15,22.4,53,22.7,21.8
 2004/06/05, 7:30,22.4,53,22.8,21.9
 2004/06/05, 7:45,22.4,53,22.9,21.9
 2004/06/05, 8:00,22.5,53,22.9,22
 2004/06/05, 8:15,22.5,53,23,22
 2004/06/05, 8:30,22.6,52,23.1,22.1
 2004/06/05, 8:45,23,49,23.3,22.1
 2004/06/05, 9:00,23.3,47,23.5,22.1
 2004/06/05, 9:15,23.6,46,23.6,22.2
 2004/06/05, 9:30,24,44,23.8,22.1
 2004/06/05, 9:45,24.2,45,24,22.1
 2004/06/05,10:00,24.3,46,24.2,22.1
 2004/06/05,10:15,24.5,46,24.4,22.1
 2004/06/05,10:30,24.7,45,24.6,22.2
 2004/06/05,10:45,24.9,43,24.9,22.2
 2004/06/05,11:00,25.1,42,25.1,22.3
 2004/06/05,11:15,25.2,44,25.3,22.3
 2004/06/05,11:30,25.4,44,25.5,22.4
 2004/06/05,11:45,25.4,45,25.8,22.4
 2004/06/05,12:00,25.5,45,26,22.5
 2004/06/05,12:15,25.6,46,26.3,22.5
 2004/06/05,12:30,25.8,45,26.5,22.6
 2004/06/05,12:45,25.9,45,26.8,22.7
 2004/06/05,13:00,26,45,27.2,22.7
 2004/06/05,13:15,26.2,45,28,22.8
 2004/06/05,13:30,26.3,46,28.9,22.9
 2004/06/05,13:45,26.5,45,29.8,22.9
 2004/06/05,14:00,26.8,44,30.8,22.9
 2004/06/05,14:15,27,43,32,23.1
 2004/06/05,14:30,27.3,41,33.2,23.2
 2004/06/05,14:45,27.5,41,34.6,23.3
 2004/06/05,15:00,27.9,36,36.1,23.4
 2004/06/05,15:15,28.1,37,37.9,23.5
 2004/06/05,15:30,28.4,38,39.5,23.6
 2004/06/05,15:45,28.5,39,40.6,23.7
 2004/06/05,16:00,28.7,38,41,23.8
 2004/06/05,16:15,28.8,39,40.8,23.9
 2004/06/05,16:30,29,40,40.5,24.1
 2004/06/05,16:45,29.2,38,39.7,24.2
 2004/06/05,17:00,29.4,38,39.3,24.3
 2004/06/05,17:15,29.5,40,38.6,24.4
 2004/06/05,17:30,29.4,40,35.9,24.5
 2004/06/05,17:45,29.1,41,33.8,24.6
 2004/06/05,18:00,28.8,42,32.4,24.7
 2004/06/05,18:15,28.5,43,31.4,24.9
 2004/06/05,18:30,28.2,44,30.7,25
 2004/06/05,18:45,28,45,30.2,25.1
 2004/06/05,19:00,27.7,45,29.8,25.2
 2004/06/05,19:15,27.4,47,29.3,25.4
 2004/06/05,19:30,27.3,47,29,25.5
 2004/06/05,19:45,27.2,48,28.8,25.6
 2004/06/05,20:00,27,49,28.5,25.8
 2004/06/05,20:15,27.3,49,28.5,25.9
 2004/06/05,20:30,27.5,50,28.4,24.1
 2004/06/05,20:45,27.5,49,28.2,24.2
 2004/06/05,21:00,27.6,49,28.1,24.2
 2004/06/05,21:15,27.5,50,27.9,24.3
 2004/06/05,21:30,27.5,50,27.8,24.4
 2004/06/05,21:45,27.5,50,27.7,24.5
 2004/06/05,22:00,27.4,50,27.7,24.6
 2004/06/05,22:15,27.3,51,27.6,24.7
 2004/06/05,22:30,27.3,51,27.5,24.8
 2004/06/05,22:45,27.2,51,27.4,24.8
 2004/06/05,23:00,27.1,50,27.3,24.9
 2004/06/05,23:15,27,50,27.2,24.9
 2004/06/05,23:30,27.1,51,27.1,25
 2004/06/05,23:45,27.1,51,27,25.1
 2004/06/06, 0:00,27.2,51,27,25.2
 2004/06/06, 0:15,27.3,51,27,25.2
 2004/06/06, 0:30,27.2,52,26.9,25.3
 2004/06/06, 0:45,27.2,52,26.9,25.3
 2004/06/06, 1:00,27.1,53,26.8,25.4
 2004/06/06, 1:15,27.2,54,26.8,25.4
 2004/06/06, 1:30,27.2,55,26.7,25.5
 2004/06/06, 1:45,27,55,26.6,23.4
 2004/06/06, 2:00,26.9,55,26.5,23.5
 2004/06/06, 2:15,26.8,55,26.5,23.5
 2004/06/06, 2:30,26.7,55,26.4,23.6
 2004/06/06, 2:45,26.7,55,26.4,23.7
 2004/06/06, 3:00,26.6,55,26.3,23.7
 2004/06/06, 3:15,26.6,55,26.2,23.8
 2004/06/06, 3:30,26.5,56,26.2,23
 2004/06/06, 3:45,26.3,56,26.1,23
 2004/06/06, 4:00,26.3,57,26,23
 2004/06/06, 4:15,26.2,57,26,23.1
 2004/06/06, 4:30,26.2,57,25.9,23.1
 2004/06/06, 4:45,26.1,58,25.9,23.2
 2004/06/06, 5:00,26.1,58,25.8,23.3
 2004/06/06, 5:15,26.1,58,25.7,23.3
 2004/06/06, 5:30,25.9,58,25.7,23.4
 2004/06/06, 5:45,25.8,58,25.6,23.4
 2004/06/06, 6:00,25.7,59,25.6,23.4
 2004/06/06, 6:15,25.5,59,25.6,23.5
 2004/06/06, 6:30,25.5,59,25.5,23.5
 2004/06/06, 6:45,25.4,59,25.5,23.6
 2004/06/06, 7:00,25.3,59,25.4,23.6
 2004/06/06, 7:15,25.3,59,25.5,23.7
 2004/06/06, 7:30,25.2,60,25.5,23.7
 2004/06/06, 7:45,25.2,60,25.6,23.7
 2004/06/06, 8:00,25.2,60,25.7,23.8
 2004/06/06, 8:15,25.2,61,25.7,23.1
 2004/06/06, 8:30,25.3,62,25.9,23.1
 2004/06/06, 8:45,25.2,62,25.9,23.2
 2004/06/06, 9:00,25.3,61,25.9,23.2
 2004/06/06, 9:15,25.3,61,26.2,23.3
 2004/06/06, 9:30,25.3,61,26.4,23.3
 2004/06/06, 9:45,25.3,61,26.7,23.4
 2004/06/06,10:00,25.3,61,27,23.4
 2004/06/06,10:15,25.4,60,27.1,23.4
 2004/06/06,10:30,25.5,60,27.3,23.5
 2004/06/06,10:45,25.6,59,27.5,23.5
 2004/06/06,11:00,25.7,59,27.7,23.6
 2004/06/06,11:15,25.8,59,28,23.6
 2004/06/06,11:30,25.9,59,28.1,23.7
 2004/06/06,11:45,26,59,28.2,23.7
 2004/06/06,12:00,26.1,59,28.4,23.8
 2004/06/06,12:15,26.2,58,28.2,23.8
 2004/06/06,12:30,26.2,58,27.9,23.9
 2004/06/06,12:45,26.3,58,28,23.9
 2004/06/06,13:00,26.3,58,28.6,24
 2004/06/06,13:15,26.5,58,29.1,24
 2004/06/06,13:30,26.5,58,29.5,24.1
 2004/06/06,13:45,26.7,58,30.1,24.1
 2004/06/06,14:00,26.8,58,31,24.2
 2004/06/06,14:15,27,58,31,24.3
 2004/06/06,14:30,27.1,57,31.9,24.3
 2004/06/06,14:45,27.2,58,32.1,24.4
 2004/06/06,15:00,27.3,58,31,24.5
 2004/06/06,15:15,27.4,58,30.6,24.5
 2004/06/06,15:30,27.5,58,30.1,24.6
 2004/06/06,15:45,27.6,58,30.4,24.6
 2004/06/06,16:00,27.6,58,29.7,24.7
 2004/06/06,16:15,27.6,59,29.5,24.8
 2004/06/06,16:30,27.7,59,34.4,24.8
 2004/06/06,16:45,27.7,59,31.8,24.9
 2004/06/06,17:00,27.7,60,30.5,25
 2004/06/06,17:15,27.7,60,29.8,25.1
 2004/06/06,17:30,27.7,60,29.5,25.2
 2004/06/06,17:45,27.7,60,29.3,25.3
 2004/06/06,18:00,27.7,60,29.2,25.4
 2004/06/06,18:15,27.7,60,29.1,25.5
 2004/06/06,18:30,27.6,59,28.7,25.6
 2004/06/06,18:45,27.6,59,28.4,25.6
 2004/06/06,19:00,27.5,59,28.1,25.7
 2004/06/06,19:15,27.4,60,27.9,25.8
 2004/06/06,19:30,27.3,60,27.7,25.9
 2004/06/06,19:45,27.2,60,27.6,26
 2004/06/06,20:00,27.2,60,27.5,26
 2004/06/06,20:15,27.1,60,27.3,26.1
 2004/06/06,20:30,27,60,27.2,26.2
 2004/06/06,20:45,27,61,27.1,26.2
 2004/06/06,21:00,26.8,61,27,26.3
 2004/06/06,21:15,26.8,61,26.9,26.3
 2004/06/06,21:30,26.7,61,26.8,26.4
 2004/06/06,21:45,26.6,61,26.7,26.5
 2004/06/06,22:00,26.6,61,26.7,26.5
 2004/06/06,22:15,26.4,61,26.6,26.5
 2004/06/06,22:30,26.4,61,26.5,26.6
 2004/06/06,22:45,26.3,61,26.4,26.6
 2004/06/06,23:00,26.3,61,26.3,26.6
 2004/06/06,23:15,26.2,61,26.3,26.7
 2004/06/06,23:30,26.1,62,26.2,26.7
 2004/06/06,23:45,26.1,61,26.2,26.7
 2004/06/07, 0:00,26,61,26.1,26.7
 2004/06/07, 0:15,25.9,62,26,26.8
 2004/06/07, 0:30,25.9,62,25.9,26.8
 2004/06/07, 0:45,25.8,62,25.9,26.8
 2004/06/07, 1:00,25.8,62,25.8,26.8
 2004/06/07, 1:15,25.7,62,25.8,26.8
 2004/06/07, 1:30,25.6,62,25.7,26.8
 2004/06/07, 1:45,25.6,62,25.6,26.8
 2004/06/07, 2:00,25.5,62,25.6,26.8
 2004/06/07, 2:15,25.5,62,25.5,26.8
 2004/06/07, 2:30,25.4,62,25.5,26.8
 2004/06/07, 2:45,25.4,62,25.4,26.8
 2004/06/07, 3:00,25.3,63,25.4,26.8
 2004/06/07, 3:15,25.3,63,25.4,26.8
 2004/06/07, 3:30,25.2,63,25.3,26.8
 2004/06/07, 3:45,25.2,63,25.2,26.8
 2004/06/07, 4:00,25.1,63,25.2,26.8
 2004/06/07, 4:15,25.1,63,25.1,26.8
 2004/06/07, 4:30,25,63,25,26.8
 2004/06/07, 4:45,24.9,63,25,26.7
 2004/06/07, 5:00,24.9,63,24.9,26.7
 2004/06/07, 5:15,24.8,63,24.9,26.7
 2004/06/07, 5:30,24.8,63,24.8,26.7
 2004/06/07, 5:45,24.7,63,24.8,26.6
 2004/06/07, 6:00,24.7,63,24.9,26.6
 2004/06/07, 6:15,24.6,63,24.9,26.6
 2004/06/07, 6:30,24.6,64,24.9,26.5
 2004/06/07, 6:45,24.6,64,25.1,26.5
 2004/06/07, 7:00,24.6,63,25.1,26.5
 2004/06/07, 7:15,24.6,63,25.3,26.5
 2004/06/07, 7:30,24.7,62,25.3,26.4
 2004/06/07, 7:45,24.7,62,25.4,26.4
 2004/06/07, 8:00,24.8,62,25.4,26.4
 2004/06/07, 8:15,24.9,62,25.6,26.4
 2004/06/07, 8:30,24.9,61,25.9,26.3
 2004/06/07, 8:45,25,61,25.8,26.3
 2004/06/07, 9:00,25.1,61,25.9,26.3
 2004/06/07, 9:15,25.2,61,26,26.3
 2004/06/07, 9:30,25.3,60,26.2,26.3
 2004/06/07, 9:45,25.5,60,26.6,26.3
 2004/06/07,10:00,25.6,60,27,26.3
 2004/06/07,10:15,25.7,60,27.2,26.3
 2004/06/07,10:30,25.8,60,27.4,26.3
 2004/06/07,10:45,26,60,27.6,26.4
 2004/06/07,11:00,26.1,60,27.8,26.4
 2004/06/07,11:15,26.2,59,28.1,26.4
 2004/06/07,11:30,26.4,59,27.8,26.4
 2004/06/07,11:45,26.5,60,27.7,26.5
 2004/06/07,12:00,26.5,60,27.6,26.5
 2004/06/07,12:15,26.5,60,27.9,26.5
 2004/06/07,12:30,26.6,60,28.1,26.6
 2004/06/07,12:45,26.7,60,28.5,26.6
 2004/06/07,13:00,26.8,60,28.6,26.6
 2004/06/07,13:15,26.9,60,29,26.7
 2004/06/07,13:30,27,60,29.7,26.7
 2004/06/07,13:45,27.1,60,30.6,26.7
 2004/06/07,14:00,27.2,60,31.5,26.8
 2004/06/07,14:15,27.4,60,31.8,26.8
 2004/06/07,14:30,27.5,60,33.4,26.9
 2004/06/07,14:45,27.7,60,34.4,27
 2004/06/07,15:00,27.9,61,36.1,27
 2004/06/07,15:15,28,61,37.8,27.1
 2004/06/07,15:30,28.2,62,40.1,27.1
 2004/06/07,15:45,28.4,62,41.3,27.2
 2004/06/07,16:00,28.5,62,40.3,27.2
 2004/06/07,16:15,28.7,62,39.7,27.3
 2004/06/07,16:30,28.8,62,39,27.3
 2004/06/07,16:45,28.9,61,37.6,27.4
 2004/06/07,17:00,29,61,36.6,27.5
 2004/06/07,17:15,29,61,34.4,27.6
 2004/06/07,17:30,29,61,34.2,27.7
 2004/06/07,17:45,29,61,33.3,27.7
 2004/06/07,18:00,29,61,32.3,27.8
 2004/06/07,18:15,29,61,31.6,27.9
 2004/06/07,18:30,29,61,31,28
 2004/06/07,18:45,28.9,61,30.6,28.1
 2004/06/07,19:00,28.8,62,30.2,28.1
 2004/06/07,19:15,28.8,62,29.9,28.2
 2004/06/07,19:30,28.7,62,29.7,28.3
 2004/06/07,19:45,28.6,62,29.5,28.4
 2004/06/07,20:00,28.6,62,29.4,28.4